Flag for U.S.A. Weather past 2 weeks in St. Croix Falls, Wisconsin, U.S.A.

Now
76 °F

Partly sunny.


Feels Like: 78 °F
Forecast: 64 / 81 °F
Wind: 12 mph from Northwest

Location: L O Simenstad Municipal Airport

Current Time: Jul 22, 2014 at 3:11:58 PM

Latest Report: Jul 22, 2014 at 11:55 AM


Visibility: 10 mi

Pressure: 30.01 "Hg

Humidity: 68%

Dew point: 64 °F

Location of St. Croix FallsLocation

Historic Weather in St. Croix Falls — Graph

°F

St. Croix Falls temperature yesterday

Maximum temperature yesterday: 88 °F (at 2:55 PM)
Minimum temperature yesterday: 73 °F (at 5:55 AM)
Average temperature yesterday: 80 °F

Past Weeks' High & Low Weather Summary

 TemperatureHumidityPressure
High88 °F (Jul 21, 2:55 PM)100% (Jul 7, 7:35 PM)30.10 "Hg (Jul 7, 7:35 PM)
Low46 °F (Jul 16, 4:55 AM)36% (Jul 13, 4:55 PM)29.66 "Hg (Jul 7, 7:35 PM)
Average69 °F74%29.97 "Hg
* Reported Jul 7 11:15 AM — Jul 22 11:55 AM, St. Croix Falls, Weather by CustomWeather, © 2014

Note: Actual official high and low records may vary slightly from our data, if they occured in-between our weather recording intervals... More about our weather records

Advertising

St. Croix Falls weather history for previous 24 hours

 ConditionsComfort  
Time TempWeatherWind HumidityBarometerVisibility
11:55 AM
Jul 22
76 °FPartly sunny.12 mph68%30.01 "Hg10 mi
11:15 AM74 °FOvercast.14 mph72%30.01 "Hg10 mi
10:55 AM76 °FMostly cloudy.10 mph70%29.98 "Hg10 mi
10:35 AM76 °FOvercast.12 mph73%29.96 "Hg10 mi
10:15 AM75 °FPartly sunny.18 mph72%29.94 "Hg10 mi
9:55 AM75 °FScattered clouds.15 mph72%29.95 "Hg10 mi
9:15 AM74 °FScattered clouds.13 mph75%29.96 "Hg10 mi
8:55 AM72 °FPartly sunny.10 mph77%29.96 "Hg10 mi
8:15 AM72 °FOvercast.13 mph79%29.95 "Hg10 mi
7:55 AM72 °FPartly sunny.13 mph77%29.95 "Hg10 mi
7:35 AM72 °FSunny.8 mph76%29.93 "Hg10 mi
7:15 AM73 °FSunny.16 mph74%29.92 "Hg10 mi
6:55 AM74 °FSunny.12 mph72%29.91 "Hg10 mi
6:35 AM74 °FClear.13 mph73%29.90 "Hg10 mi
5:55 AM76 °FPartly cloudy.7 mph81%29.85 "Hg10 mi
5:35 AM78 °FMostly cloudy.10 mph83%29.85 "Hg10 mi
5:15 AM79 °FPartly cloudy.12 mph93%29.83 "Hg10 mi
4:55 AM79 °FMostly cloudy.9 mph91%29.81 "Hg10 mi
4:35 AM79 °FMostly cloudy.9 mph89%29.81 "Hg10 mi
4:15 AM79 °FOvercast.9 mph86%29.81 "Hg10 mi
3:55 AM80 °FMostly cloudy.10 mph84%29.80 "Hg10 mi
3:15 AM80 °FOvercast.12 mph82%29.82 "Hg10 mi
2:55 AM80 °FMostly cloudy.12 mph82%29.82 "Hg10 mi
2:35 AM79 °FMostly cloudy.12 mph82%29.82 "Hg10 mi
2:15 AM80 °FMostly cloudy.12 mph81%29.81 "Hg10 mi
1:55 AM80 °FPassing clouds.13 mph80%29.82 "Hg10 mi
1:35 AM80 °FMostly cloudy.10 mph79%29.84 "Hg10 mi
1:15 AM80 °FPartly cloudy.15 mph78%29.84 "Hg10 mi
12:55 AM80 °FPartly cloudy.15 mph78%29.83 "Hg10 mi
12:35 AM81 °FMostly cloudy.12 mph77%29.84 "Hg10 mi
12:15 AM81 °FMostly cloudy.12 mph77%29.85 "Hg10 mi
11:55 PM
Jul 21
81 °FOvercast.13 mph77%29.85 "Hg10 mi
11:35 PM81 °FOvercast.9 mph76%29.86 "Hg10 mi
11:15 PM81 °FOvercast.9 mph76%29.86 "Hg10 mi
10:55 PM81 °FOvercast.9 mph75%29.85 "Hg10 mi
10:35 PM82 °FOvercast.12 mph75%29.84 "Hg10 mi
9:55 PM82 °FMostly cloudy.14 mph75%29.85 "Hg10 mi
9:35 PM82 °FPartly sunny.12 mph75%29.85 "Hg10 mi
9:15 PM82 °FPartly sunny.15 mph74%29.85 "Hg10 mi
8:55 PM83 °FMostly cloudy.13 mph73%29.86 "Hg10 mi
8:35 PM83 °FMostly cloudy.12 mph73%29.87 "Hg10 mi
8:15 PM83 °FBroken clouds.10 mph74%29.88 "Hg10 mi
7:55 PM83 °FScattered clouds.9 mph73%29.89 "Hg10 mi
7:35 PM83 °FSunny.9 mph73%29.90 "Hg10 mi
7:15 PM84 °FSunny.12 mph71%29.90 "Hg10 mi
6:55 PM85 °FScattered clouds.12 mph70%29.90 "Hg10 mi
6:15 PM85 °FBroken clouds.12 mph69%29.91 "Hg10 mi
5:55 PM87 °FScattered clouds.9 mph68%29.91 "Hg10 mi
5:35 PM88 °FScattered clouds.15 mph64%29.91 "Hg10 mi
5:15 PM87 °FScattered clouds.10 mph66%29.90 "Hg10 mi
4:55 PM88 °FScattered clouds.13 mph63%29.91 "Hg10 mi
4:15 PM87 °FPartly sunny.14 mph65%29.91 "Hg10 mi
3:55 PM87 °FPartly sunny.12 mph67%29.91 "Hg10 mi
3:15 PM87 °FPartly sunny.15 mph65%29.93 "Hg10 mi
Weather by CustomWeather, © 2014

See weather overviewHow to use our weather pages